Weather History for CYCD - December, 2012

Change the Weather History Date:

Saturday, December 22, 2012

  Actual Average Record
Temperature  
Mean Temperature 34 °F -  
Max Temperature 41 °F 39 °F 53 °F (2005)
Min Temperature 28 °F 30 °F 0 °F (2013)
Degree Days  
Heating Degree Days 30    
Moisture  
Dew Point 35 °F    
Average Humidity 96    
Maximum Humidity 100    
Minimum Humidity 87    
Precipitation  
Precipitation 0.28 in - - ()
Sea Level Pressure  
Sea Level Pressure 29.47 in    
Wind  
Wind Speed 6 mph ()    
Max Wind Speed 28 mph    
Max Gust Speed 21 mph    
Visibility 6.2 miles    
Events Fog , Rain    
Averages and records for this station are not official NWS values.
T = Trace of Precipitation, MM = Missing Value Source: Averaged Metar Reports

Daily Weather History Graph

Daily Weather History Graph

Search for Another Location

Airport or City:

Trip Planner

Search our weather history database for the weather conditions in past years. The results will help you decide how hot, cold, wet, or windy it might be!

Date:

Astronomy

Dec. 22, 2012 Rise Set
Actual Time 8:07 AM PST 4:21 PM PST
Civil Twilight 7:30 AM PST 4:58 PM PST
Nautical Twilight 6:49 AM PST 5:39 PM PST
Astronomical Twilight 6:11 AM PST 6:17 PM PST
Moon 12:56 PM PST (12/22) 2:42 AM PST (12/22)
Length of Visible Light 9h 28m
Length of Day
8h 13m
Waxing Gibbous, 74% of the Moon is Illuminated
Dec 22
Waxing Gibbous
Dec 28
Full
Jan 4
Last Quarter
Jan 11
New
Jan 18
First Quarter

Hourly Weather History & Observations

Time (PST) Temp. Windchill Dew Point Humidity Pressure Visibility Wind Dir Wind Speed Gust Speed Precip Events Conditions
4:00 AM 34 °F - 32 °F 91% 29.26 in - ENE 27.6 mph - -  
6:00 AM 35.6 °F - 35.6 °F 100% 29.58 in 4.0 mi WSW 2.3 mph - N/A Rain Light Rain
6:47 AM - - - N/A% - 8.0 mi West 3.5 mph - N/A   Overcast
7:00 AM 35.6 °F - 35.6 °F 100% 29.55 in 8.0 mi Calm Calm - N/A   Overcast
7:42 AM - - - N/A% - 10.0 mi Calm Calm - N/A Rain Light Rain
8:00 AM 35.6 °F - 35.6 °F 100% 29.54 in 10.0 mi Calm Calm - N/A Rain Light Rain
9:00 AM 35.6 °F - 35.6 °F 100% 29.54 in 5.0 mi West 2.3 mph - N/A Rain Light Rain
10:00 AM 36 °F - 34 °F 89% 29.22 in - East 15.0 mph - -  
10:00 AM 35.6 °F 32.8 °F 35.6 °F 100% 29.53 in 7.0 mi West 3.5 mph - N/A Rain Light Rain
11:00 AM 35.6 °F - 35.6 °F 100% 29.53 in 6.0 mi Calm Calm - N/A Rain Light Rain
12:00 PM 35.6 °F - 35.6 °F 100% 29.53 in 6.0 mi Calm Calm - N/A Rain Light Rain
12:37 PM - - - N/A% - 3.0 mi West 2.3 mph - N/A Rain Light Rain
1:00 PM 37.4 °F - 35.6 °F 93% 29.52 in 2.0 mi NW 2.3 mph - N/A Rain Light Rain
2:00 PM 35.6 °F 32.8 °F 35.6 °F 100% 29.51 in 2.0 mi NW 3.5 mph - N/A Rain Light Rain
2:23 PM - - - N/A% - 3.0 mi West 2.3 mph - N/A Rain Light Rain
3:00 PM 35.6 °F 31.7 °F 35.6 °F 100% 29.51 in 3.0 mi West 4.6 mph - N/A Rain Light Rain
3:22 PM - - - N/A% - 6.0 mi West 4.6 mph - N/A Rain Light Rain
4:00 PM 35 °F - 34 °F 93% 29.23 in - East 8.1 mph - -  
4:00 PM 35.6 °F 32.8 °F 35.6 °F 100% 29.50 in 8.0 mi West 3.5 mph - N/A Fog , Rain Light Rain
4:24 PM - - - N/A% - 8.0 mi East 4.6 mph - N/A Fog Overcast
4:46 PM - - - N/A% - 6.0 mi West 3.5 mph - N/A Rain Light Rain
5:00 PM 35.6 °F - 35.6 °F 100% 29.51 in 6.0 mi Calm Calm - N/A Rain Light Rain
5:49 PM - - - N/A% - 6.0 mi Calm Calm - N/A Fog , Rain Light Rain
6:00 PM 35.6 °F - 35.6 °F 100% 29.51 in 6.0 mi Calm Calm - N/A Fog , Rain Light Rain
7:00 PM 35.6 °F - 33.8 °F 93% 29.52 in 6.0 mi Calm Calm - N/A Fog , Rain Light Rain
7:24 PM - - - N/A% - 8.0 mi SSE 12.7 mph 18.4 mph N/A Fog Mostly Cloudy
8:00 PM 41.0 °F 34.7 °F 37.4 °F 87% 29.53 in 8.0 mi SE 10.4 mph - N/A Fog Mostly Cloudy
8:05 PM - - - N/A% - 8.0 mi South 10.4 mph - N/A Fog , Rain Light Rain
9:00 PM 41.0 °F 33.1 °F 37.4 °F 87% 29.56 in 8.0 mi ESE 15.0 mph 20.7 mph N/A Fog , Rain Light Rain
10:00 PM 30 °F - 29 °F 96% 29.25 in - SW 17.3 mph - -